Erzurum, Turkey

12:07 AM +03 on March 30, 2017 (GMT +0300)
Erzurum

Weather History for LTCE - August, 2013

Change the Weather History Date:

Saturday, August 3, 2013

  Actual Average Record
Temperature  
Mean Temperature 68 °F -  
Max Temperature 84 °F 79 °F 95 °F (1999)
Min Temperature 51 °F 51 °F 46 °F (1999)
Cooling Degree Days 2    
Growing Degree Days 18 (Base 50)    
Moisture  
Dew Point 45 °F    
Average Humidity 46    
Maximum Humidity 77    
Minimum Humidity 10    
Precipitation  
Precipitation 0.00 in 0.02 in - ()
Sea Level Pressure  
Sea Level Pressure 30.02 in    
Wind  
Wind Speed 9 mph ()    
Max Wind Speed 15 mph    
Max Gust Speed -    
Visibility 7.4 miles    
Events      
Averages and records for this station are not official NWS values.
T = Trace of Precipitation, MM = Missing Value Source: Averaged Metar Reports

Daily Weather History Graph

Daily Weather History Graph

Search for Another Location

Airport or City:

Trip Planner

Search our weather history database for the weather conditions in past years. The results will help you decide how hot, cold, wet, or windy it might be!

Date:

Astronomy

Aug. 03, 2013 Rise Set
Actual Time 5:15 AM EEST 7:26 PM EEST
Civil Twilight 4:45 AM EEST 7:56 PM EEST
Nautical Twilight 4:08 AM EEST 8:33 PM EEST
Astronomical Twilight 3:28 AM EEST 9:13 PM EEST
Moon 2:06 AM EEST (8/3) 4:53 PM EEST (8/3)
Length of Visible Light 15h 11m
Length of Day
14h 11m
Waning Crescent, 11% of the Moon is Illuminated
Aug 3
Waning Crescent
Aug 7
New
Aug 14
First Quarter
Aug 21
Full
Aug 28
Last Quarter

Hourly Weather History & Observations

Time (EEST) Temp. Dew Point Humidity Pressure Visibility Wind Dir Wind Speed Gust Speed Precip Events Conditions
12:20 AM 60.8 °F 46.4 °F 59% 30.04 in - NE 10.4 mph - N/A   Clear
12:50 AM 60.8 °F 48.2 °F 63% 30.04 in - NE 11.5 mph - N/A   Clear
1:20 AM 59.0 °F 46.4 °F 63% 30.04 in - NNE 11.5 mph - N/A   Clear
1:50 AM 59.0 °F 46.4 °F 63% 30.04 in - NNE 15.0 mph - N/A   Clear
2:20 AM 59.0 °F 46.4 °F 63% 30.04 in - NE 13.8 mph - N/A   Clear
2:50 AM 57.2 °F 46.4 °F 67% 30.04 in - NNE 15.0 mph - N/A   Clear
3:00 AM 57 °F 46 °F 58%  in 12 mi NNE 15.0 mph - -  
3:20 AM 57.2 °F 46.4 °F 67% 30.04 in - NNE 13.8 mph - N/A   Clear
3:50 AM 55.4 °F 46.4 °F 72% 30.04 in - NE 11.5 mph - N/A   Clear
4:20 AM 53.6 °F 46.4 °F 77% 30.04 in - Variable 2.3 mph - N/A   Clear
4:50 AM 51.8 °F 44.6 °F 76% 30.04 in - Calm Calm - N/A   Clear
5:20 AM 53.6 °F 46.4 °F 77% 30.04 in - Variable 2.3 mph - N/A   Clear
5:50 AM 53.6 °F 46.4 °F 77% 30.04 in - East 3.5 mph - N/A   Clear
6:20 AM 55.4 °F 46.4 °F 72% 30.06 in - Variable 2.3 mph - N/A   Clear
6:50 AM 57.2 °F 46.4 °F 67% 30.06 in - NE 5.8 mph - N/A   Clear
7:20 AM 60.8 °F 46.4 °F 59% 30.06 in - North 4.6 mph - N/A   Clear
7:50 AM 62.6 °F 48.2 °F 59% 30.04 in - NNE 11.5 mph - N/A   Clear
8:20 AM 66.2 °F 50.0 °F 56% 30.04 in - ENE 8.1 mph - N/A   Clear
8:50 AM 66.2 °F 48.2 °F 52% 30.04 in - ENE 9.2 mph - N/A   Clear
9:00 AM 67 °F 49 °F 41%  in 12 mi ENE 9.2 mph - -  
9:20 AM 68.0 °F 48.2 °F 49% 30.04 in - ENE 9.2 mph - N/A   Clear
9:50 AM 71.6 °F 50.0 °F 46% 30.04 in - ENE 9.2 mph - N/A   Clear
10:20 AM 71.6 °F 50.0 °F 46% 30.04 in - NE 6.9 mph - N/A   Clear
10:50 AM 73.4 °F 50.0 °F 44% 30.01 in - Variable 6.9 mph - N/A   Clear
11:20 AM 75.2 °F 50.0 °F 41% 30.01 in - North 5.8 mph - N/A   Clear
11:50 AM 75.2 °F 48.2 °F 38% 30.01 in - NNW 5.8 mph - N/A   Clear
12:20 PM 77.0 °F 48.2 °F 36% 29.98 in 6.2 mi ENE 4.6 mph - N/A   Partly Cloudy
12:50 PM 80.6 °F 48.2 °F 32% 29.98 in 6.2 mi Variable 2.3 mph - N/A   Partly Cloudy
1:20 PM 80.6 °F 48.2 °F 32% 29.98 in 6.2 mi Variable 5.8 mph - N/A   Partly Cloudy
1:50 PM 80.6 °F 46.4 °F 30% 29.95 in 6.2 mi Variable 4.6 mph - N/A   Scattered Clouds
2:20 PM 82.4 °F 41.0 °F 23% 29.95 in 6.2 mi West 8.1 mph - N/A   Scattered Clouds
2:50 PM 82.4 °F 33.8 °F 17% 29.95 in 6.2 mi WSW 11.5 mph - N/A   Scattered Clouds
3:00 PM 83 °F 35 °F 10%  in 12 mi WSW 11.5 mph - -   Partly Cloudy
3:20 PM 82.4 °F 35.6 °F 19% 29.95 in 6.2 mi West 12.7 mph - N/A   Scattered Clouds
3:50 PM 84.2 °F 32.0 °F 15% 29.95 in 6.2 mi West 10.4 mph - N/A   Scattered Clouds
4:20 PM 84.2 °F 33.8 °F 16% 29.95 in 6.2 mi West 10.4 mph - N/A   Scattered Clouds
4:50 PM 82.4 °F 41.0 °F 23% 29.95 in 6.2 mi WNW 15.0 mph - N/A   Scattered Clouds
5:20 PM 82.4 °F 39.2 °F 21% 29.95 in 6.2 mi WNW 12.7 mph - N/A   Scattered Clouds
5:50 PM 80.6 °F 44.6 °F 28% 29.95 in 6.2 mi NW 10.4 mph - N/A   Partly Cloudy
6:20 PM 77.0 °F 44.6 °F 32% 29.95 in 6.2 mi North 15.0 mph - N/A   Partly Cloudy
6:50 PM 75.2 °F 44.6 °F 34% 29.98 in 6.2 mi NNW 12.7 mph - N/A   Partly Cloudy
7:20 PM 73.4 °F 41.0 °F 31% 29.98 in 6.2 mi NW 13.8 mph - N/A   Partly Cloudy
7:50 PM 71.6 °F 41.0 °F 33% 30.01 in - WNW 8.1 mph - N/A   Clear
8:20 PM 68.0 °F 42.8 °F 40% 30.04 in - North 6.9 mph - N/A   Clear
8:50 PM 68.0 °F 42.8 °F 40% 30.04 in - West 8.1 mph - N/A   Clear
9:00 PM 67 °F 42 °F 28%  in 12 mi West 8.1 mph - -  
9:20 PM 64.4 °F 42.8 °F 45% 30.06 in - Variable 2.3 mph - N/A   Clear
9:50 PM 62.6 °F 42.8 °F 48% 30.06 in - WSW 4.6 mph - N/A   Clear
10:20 PM 64.4 °F 42.8 °F 45% 30.06 in - WSW 13.8 mph - N/A   Clear
10:50 PM 62.6 °F 42.8 °F 48% 30.06 in - West 8.1 mph - N/A   Clear
11:20 PM 59.0 °F 42.8 °F 55% 30.06 in - SSW 4.6 mph - N/A   Clear
11:50 PM 59.0 °F 46.4 °F 63% 30.06 in - South 3.5 mph - N/A   Clear